Погода в Венеции

Россия / Республика Башкортостан     55°30′13″N   54°53′47″E
темп.,
°C
ветер,
м/с
пор.,
м/с
влажн.,
%
обл.,
%
осадки,
мм/ч
давл.,
гПа
погр.,
м
7 марта, вс
вс723:00−15з239457 0.0 101322
02:00−16з2297100 0.0 101220
05:00−18зюз1210087 0.1 101220
08:00−19зюз2210071 0.0 101120
11:00−14зюз239382 0.1 1010249
14:00−11з3488100 0.1 1010469
17:00−11зюз2490100 0.1 1009484
20:00−15ююз239578 0.0 101020
8 марта, пн
пн823:00−16ю349540 0.0 101037
02:00−16ююв479628 0.0 1007128
05:00−14ююв6119564 0.1 1005304
08:00−10ю81493100 1.1 1001661
11:00−7ю81493100 2.3 998986
14:00−2юз91490100 0.8 9971230
17:00−4юз7147770 1.0 9971214
20:00−7юз8188025 0.0 1000740
9 марта, вт
вт923:00−8зюз7168313 0.0 1003528
02:00−11юз510900 0.0 1004183
05:00−13ю349314 0.0 100428
08:00−11юв359699 0.0 100289
11:00−5зюз71091100 1.2 1002803
14:00−7зсз71090100 0.2 1004639
17:00−7з4789100 0.3 1007613
20:00−12з339461 0.0 100821
10 марта, ср
ср1023:00−15зсз229743 0.0 100920
02:00−15зсз129895 0.1 100821
05:00−15сз239797 0.1 100954
08:00−18ссз3698100 0.1 1009112
11:00−18с4695100 0.1 1011328
14:00−17ссз5791100 0.0 1012409
17:00−15зсз5891100 0.2 1012606
20:00−18зсз499598 0.1 1014269
11 марта, чт
чт1123:00−21сз3510096 0.1 101677
02:00−26зсз349739 0.0 101653
05:00−27з479721 0.0 101891
08:00−26зюз4109770 0.0 1018203
11:00−21зюз6119484 0.0 1018352
14:00−17з61193100 0.4 1018633
17:00−15з61089100 0.6 1019636
20:00−15з61392100 0.1 1020463